Location: Lac Lasalle
(46.0398°N, 74.1576°W)
Time: 20:30:53
(UTC-05:00)

AO-73 - Pass Details

Date: 10 December 2019
Orbit: 582 x 664 km, 97.6° (Epoch: 23 January)

Event Time Altitude Azimuth Distance (km) Brightness Sun altitude
Rises 17:07:29 0° 157° (SSE) 2,976 ? -9.4°
Reaches altitude 10° 17:09:44 10° 154° (SSE) 2,061 ? -9.8°
Maximum altitude 17:14:10 62° 74° (ENE) 730 ? -10.5°
Drops below altitude 10° 17:18:34 10° 354° (N) 2,036 ? -11.2°
Sets 17:20:46 0° 351° (N) 2,936 ? -11.6°
